Regional Weather Roundup
Issued by NWS

Home | Current Version | Previous Version | Text Only | Print | Product List | Glossary Off
Versions: 1 2 3 4 5 6 7 8 9 10 11 12 13 14 15 16 17 18 19 20 21 22 23 24 25 26 27 28 29 30 31 32 33 34 35 36 37 38 39 40 41 42 43 44 45 46 47 48 49 50

086
ASUS45 KSLC 222010
RWRUT

UTAH REGIONAL WEATHER ROUNDUP
NATIONAL WEATHER SERVICE SALT LAKE CITY UT
200 PM MDT SAT APR 22 2017

UTZ001>011-023>025-222100-

NORTHERN UTAH

CITY           SKY/WX    TMP DP  RH WIND       PRES   REMARKS
BRIGHAM CITY   SUNNY     55  27  34 CALM      30.20F
HILL AFB       SUNNY     55  26  33 S6        30.19F
LOGAN          SUNNY     57  36  45 VRB6      30.17F
OGDEN          SUNNY     55  26  32 CALM      30.18F
SALT LAKE CITY PTSUNNY   60  30  32 W8        30.17F
TOOELE VALLEY  SUNNY     55  34  44 N8        30.18F
WENDOVER       MOSUNNY   54  27  35 SE6       30.17F
HEBER CITY     SUNNY     61  21  21 SE10      30.16F
WEST JORDAN    SUNNY     61  38  42 E8        30.18F

$$

UTZ011>015-024>027-222100-

CENTRAL/NORTHEAST UTAH

CITY           SKY/WX    TMP DP  RH WIND       PRES   REMARKS
PROVO AIRPORT  SUNNY     56  30  37 W6        30.19F
MOAB/CANYONLAN SUNNY     64  17  16 VRB5      30.15F
DELTA          SUNNY     57  21  24 W7        30.17F
PRICE          SUNNY     55  16  21 SE5       30.21F
ROOSEVELT      SUNNY     55  21  26 N5        30.25F
VERNAL         SUNNY     55  24  30 SW9       30.22F

$$

UTZ013>016-019>022-027-222100-

SOUTHERN UTAH

CITY           SKY/WX    TMP DP  RH WIND       PRES   REMARKS
BRYCE CANYON   SUNNY     55  17  22 S10       30.22F
CEDAR CITY     SUNNY     59  22  24 VRB3      30.14F
MILFORD        SUNNY     60  22  23 NE9       30.16F
ST GEORGE      CLEAR     72  23  16 VRB5      30.06F
HANKSVILLE     SUNNY     63  16  16 N8        30.20F
BLANDING       SUNNY     59  18  19 CALM      30.23F

$$

REGIONAL REPORTS     COLORADO/ARIZONA

CITY           SKY/WX    TMP DP  RH WIND       PRES   REMARKS
CRAIG, CO      MOSUNNY   52  22  30 N6        30.23F
GRAND JUNCTION SUNNY     63  17  17 SE10      30.16F
RIFLE, CO      SUNNY     57  18  21 CALM      30.20F
MONTROSE, CO   SUNNY     57  17  21 CALM      30.20F
CORTEZ, CO     SUNNY     62  18  18 SW7       30.16F
COLORADO CITY    N/A     72  23  16 S5        30.13F
PAGE, AZ       SUNNY     65  17  15 NE12      30.14F
GRAND CANYON   SUNNY     63  24  22 NE12G21   30.18F
KINGMAN, AZ    NOT AVBL
FLAGSTAFF, AZ  SUNNY     63  18  17 VRB5      30.18F

$$

REGIONAL REPORTS    NEVADA/IDAHO/WYOMING

CITY           SKY/WX    TMP DP  RH WIND       PRES   REMARKS
LAS VEGAS, NV  MOSUNNY   78  17  10 N9        29.99F
ELY, NY        SUNNY     60  27  28 S8        30.12F
ELKO, NV       MOSUNNY   61  29  29 VRB3      30.06F
POCATELLO, ID  MOSUNNY   59  31  34 S17       30.15F
BURLEY, ID     SUNNY     60  27  28 VRB5      30.08F
FORT BRIDGER,    N/A     52  21  30 NE6G17    30.24F
EVANSTON, WY   SUNNY     51  25  36 SE9       30.20F
ROCK SPRINGS,  SUNNY     53  22  29 SE12G20   30.22F
KEMMERER, WY     N/A     46  19  34 E9        30.23F

$$




USA.gov is the U.S. government's official web portal to all federal, state and local government web resources and services.